Hourly Weather Roundup
Issued by NWS Central Illinois

Home | Current Version | Previous Version | Text Only | Print | Product List | Glossary On
Versions: 1 2 3 4 5 6 7 8 9 10 11 12 13 14 15 16 17 18 19 20 21 22 23 24 25 26 27 28 29 30 31 32 33 34 35 36 37 38 39 40 41 42 43 44 45 46 47 48 49 50
000
NZUS43 KILX 300210
HWRILX

AREA WEATHER ROUNDUP
NATIONAL WEATHER SERVICE, LINCOLN IL
900 PM CDT FRI MAY 29 2015


CITY           SKY/WX    TMP DP  RH WIND       PRES   REMARKS
BLOOMINGTON    CLOUDY    68  66  93 S8        29.99S
CHAMPAIGN      LGT RAIN  71  66  84 SW3       30.00S
DANVILLE       CLOUDY    75  62  62 W13G23    29.98R
DECATUR        CLOUDY    71  65  81 SW5       30.00R
EFFINGHAM      RAIN      68  64  89 SE8       30.04R
FLORA          LGT RAIN  67  65  94 CALM      30.06R
GALESBURG      CLOUDY    71  64  78 SW7       29.96R
JACKSONVILLE   CLOUDY    75  66  75 SW3       29.98R
LACON          CLOUDY    74  65  72 S7        29.94R
LAWRENCEVILLE  PTCLDY    77  66  68 S8        30.03R
LITCHFIELD     CLOUDY    69  66  90 SE6       30.00S
$$


CITY           SKY/WX    TMP DP  RH WIND       PRES   REMARKS
LINCOLN        CLOUDY    70  67  90 S6        29.96S
MACOMB         CLOUDY    73  65  77 SW6       29.99R
MATTOON        LGT RAIN  70  67  90 S7        30.00S
MT CARMEL AP   MOCLDY    79  63  57 W10       30.03R HX  80
OLNEY-NOBLE AP HVY RAIN  68  66  94 W16       30.05R
PARIS          MOCLDY    74  64  69 W8        30.02R
PEORIA         CLOUDY    74  66  76 S10       29.95S
PONTIAC        CLOUDY    71  67  89 S10       29.96S
RANTOUL        CLOUDY    70  68  92 CALM      29.99S
ROBINSON       MOCLDY    75  64  67 W7        30.03R
SPRINGFIELD    CLOUDY    73  69  87 S8        29.98S
TAYLORVILLE    CLOUDY    70  66  88 S7        30.00S
$$

...REGIONAL REPORTS...


CITY           SKY/WX    TMP DP  RH WIND       PRES   REMARKS
CHICAGO O`HARE MOCLDY    77  63  61 SW6       29.91S
KANKAKEE       CLOUDY    70  67  89 SW9       29.97R
MOLINE         CLOUDY    72  65  78 CALM      29.93R
MOUNT VERNON   MOCLDY    68  63  83 NE3       30.04S
PITTSFIELD     CLOUDY    72  67  82 SW5       30.00R
QUINCY         CLOUDY    71  66  84 S6        29.97R
ROCKFORD       CLOUDY    69  67  93 S3        29.93R
$$


CITY           SKY/WX    TMP DP  RH WIND       PRES   REMARKS
BURLINGTON     CLOUDY    72  66  81 SW6       29.96R
CEDAR RAPIDS   LGT RAIN  70  65  84 SW13      29.91R
DES MOINES     MOCLDY    71  63  75 SW6       29.92R
KIRKSVILLE     CLOUDY    68  66  93 S7        29.98R
OTTUMWA        CLOUDY    68  64  87 S8        29.95R
ST LOUIS       CLOUDY    76  68  76 S7        29.99R
$$


CITY           SKY/WX    TMP DP  RH WIND       PRES   REMARKS
TERRE HAUTE    PTCLDY    76  66  71 S7        30.01R
EVANSVILLE     PTCLDY    77  67  71 S5        30.04R
INDIANAPOLIS   PTCLDY    75  63  66 S8        30.02R
LAFAYETTE      PTCLDY    76  64  66 S7        29.98R
MADISON        CLOUDY    73  63  70 SW6       29.88S
MILWAUKEE      CLOUDY    72  66  81 SW7       29.89S
$$




USA.gov is the U.S. government's official web portal to all federal, state and local government web resources and services.